Home   Weather   Vista   Past weeks

Flag for USA Past Weather in Vista, California, USA — Yesterday and Last 2 Weeks

Now
57 °F

Overcast.


Feels Like: 57 °F
Forecast: 50 / 62 °F
Wind: 5 mph from East

Location: McClellan-Palomar Airport

Current Time: Feb 20, 2017 at 10:13:40 am

Latest Report: Feb 20, 2017 at 8:53 am


Visibility: 10 mi

Pressure: 30.26 "Hg

Humidity: 72%

Dew Point: 48 °F

Location of VistaLocation

Past Weather in Vista — Graph

°F

Vista Temperature Yesterday

Maximum temperature yesterday: 58 °F (at 12:23 pm)
Minimum temperature yesterday: 54 °F (at 2:53 am)
Average temperature yesterday: 55 °F

High & Low Weather Summary for the Past Weeks

 TemperatureHumidityPressure
High67 °F (Feb 9, 9:53 am)100% (Feb 6, 3:53 pm)30.26 "Hg (Feb 6, 3:53 pm)
Low48 °F (Feb 12, 5:53 am)53% (Feb 13, 11:53 am)29.48 "Hg (Feb 17, 5:53 pm)
Average57 °F89%29.99 "Hg
* Reported Feb 5 8:53 am — Feb 20 8:53 am, Vista, Weather by CustomWeather, © 2017

Note: Actual official high and low records may vary slightly from our data, if they occured in-between our weather recording intervals... More about our weather records

Advertising

Vista Weather History for the Previous 24 Hours

Scroll right to see more
 ConditionsComfort  
Time TempWeatherWind HumidityBarometerVisibility
8:53 am
Mon, Feb 20
57 °FOvercast.5 mph72%30.26 "Hg10 mi
7:53 am56 °FOvercast.No wind75%30.24 "Hg10 mi
6:53 am54 °FOvercast.No wind83%30.23 "Hg10 mi
5:53 am54 °FOvercast.No wind83%30.20 "Hg10 mi
4:53 am54 °FMostly cloudy.3 mph83%30.19 "Hg10 mi
3:53 am54 °FOvercast.3 mph83%30.18 "Hg10 mi
2:53 am54 °FOvercast.No wind83%30.19 "Hg10 mi
1:53 am54 °FMostly cloudy.No wind80%30.17 "Hg10 mi
12:53 am54 °FOvercast.5 mph80%30.18 "Hg10 mi
11:53 pm
Sun, Feb 19
54 °FMostly cloudy.3 mph80%30.17 "Hg10 mi
10:53 pm54 °FOvercast.3 mph80%30.16 "Hg10 mi
9:53 pm54 °FMostly cloudy.3 mph80%30.15 "Hg10 mi
8:53 pm54 °FPassing clouds.No wind80%30.13 "Hg10 mi
7:53 pm54 °FOvercast.3 mph80%30.11 "Hg10 mi
6:53 pm55 °FPassing clouds.No wind77%30.08 "Hg10 mi
5:53 pm56 °FPassing clouds.5 mph72%30.05 "Hg10 mi
4:53 pm56 °FPartly sunny.7 mph72%30.03 "Hg10 mi
3:53 pm57 °FOvercast.9 mph67%30.02 "Hg10 mi
2:53 pm57 °FOvercast.7 mph67%30.00 "Hg10 mi
1:53 pm58 °FOvercast.12 mph70%29.99 "Hg10 mi
12:53 pm58 °FMore clouds than sun.9 mph70%29.98 "Hg10 mi
12:23 pm58 °FCloudy.10 mph72%29.99 "Hg10 mi
11:53 am57 °FMore clouds than sun.7 mph74%29.99 "Hg10 mi
10:53 am56 °FMostly cloudy.10 mph81%29.99 "Hg10 mi
10:37 am56 °FMore clouds than sun.9 mph81%29.99 "Hg10 mi
Weather by CustomWeather, © 2017

See weather overviewHow to use our weather pages